Time,TemperatureF,DewpointF,PressureIn,WindDirection,WindDirectionDegrees,WindSpeedMPH,WindSpeedGustMPH,Humidity,HourlyPrecipIn,Conditions,Clouds,dailyrainin,SoftwareType,DateUTC
2013-08-14 00:14:00,73.2,67.0,29.77,NE,47,2.0,3.0,82,0.00,,,0.00,weatherlink.com 1.10,2013-08-14 04:14:00,
2013-08-14 00:29:00,72.6,68.0,29.77,NE,41,2.0,2.0,85,0.00,,,0.00,weatherlink.com 1.10,2013-08-14 04:29:00,
2013-08-14 00:44:00,73.4,68.0,29.77,East,84,2.0,5.0,82,0.00,,,0.00,weatherlink.com 1.10,2013-08-14 04:44:00,
2013-08-14 00:59:00,73.5,68.0,29.77,NE,55,0.0,3.0,82,0.00,,,0.00,weatherlink.com 1.10,2013-08-14 04:59:00,
2013-08-14 01:14:00,73.3,68.0,29.77,NE,49,0.0,2.0,82,0.00,,,0.00,weatherlink.com 1.10,2013-08-14 05:14:00,
2013-08-14 01:29:00,73.0,68.0,29.77,NE,49,0.0,0.0,83,0.00,,,0.00,weatherlink.com 1.10,2013-08-14 05:29:00,
2013-08-14 01:44:00,72.6,68.0,29.77,NE,49,0.0,1.0,85,0.00,,,0.00,weatherlink.com 1.10,2013-08-14 05:44:00,
2013-08-14 01:59:00,71.8,68.0,29.77,NNE,23,0.0,2.0,86,0.00,,,0.00,weatherlink.com 1.10,2013-08-14 05:59:00,
2013-08-14 02:15:00,71.3,67.0,29.77,NNE,23,0.0,1.0,87,0.00,,,0.00,weatherlink.com 1.10,2013-08-14 06:15:00,
2013-08-14 02:30:00,72.4,67.0,29.77,NNW,344,1.0,4.0,82,0.00,,,0.00,weatherlink.com 1.10,2013-08-14 06:30:00,
2013-08-14 02:45:00,73.7,67.0,29.77,NE,53,1.0,4.0,80,0.00,,,0.00,weatherlink.com 1.10,2013-08-14 06:45:00,
2013-08-14 03:00:00,73.7,67.0,29.77,NE,38,0.0,3.0,79,0.00,,,0.00,weatherlink.com 1.10,2013-08-14 07:00:00,
2013-08-14 03:15:00,73.3,67.0,29.77,NE,52,0.0,3.0,80,0.00,,,0.00,weatherlink.com 1.10,2013-08-14 07:15:00,
2013-08-14 03:30:00,72.8,67.0,29.77,NE,52,2.0,2.0,82,0.00,,,0.00,weatherlink.com 1.10,2013-08-14 07:30:00,
2013-08-14 03:45:00,72.6,67.0,29.77,ENE,67,0.0,2.0,82,0.00,,,0.00,weatherlink.com 1.10,2013-08-14 07:45:00,
2013-08-14 04:00:00,72.6,66.0,29.76,NE,52,0.0,6.0,79,0.00,,,0.00,weatherlink.com 1.10,2013-08-14 08:00:00,
2013-08-14 04:15:00,72.7,66.0,29.77,NNW,333,0.0,3.0,80,0.00,,,0.00,weatherlink.com 1.10,2013-08-14 08:15:00,
2013-08-14 04:30:00,72.8,66.0,29.77,North,11,2.0,4.0,78,0.00,,,0.00,weatherlink.com 1.10,2013-08-14 08:30:00,
2013-08-14 04:45:00,72.8,66.0,29.77,NNE,21,1.0,4.0,78,0.00,,,0.00,weatherlink.com 1.10,2013-08-14 08:45:00,
2013-08-14 05:00:00,72.6,65.0,29.77,ENE,65,1.0,4.0,78,0.00,,,0.00,weatherlink.com 1.10,2013-08-14 09:00:00,
2013-08-14 05:15:00,72.2,64.0,29.77,NE,51,0.0,3.0,76,0.00,,,0.00,weatherlink.com 1.10,2013-08-14 09:15:00,
2013-08-14 05:30:00,71.9,65.0,29.77,East,92,0.0,2.0,79,0.00,,,0.00,weatherlink.com 1.10,2013-08-14 09:30:00,
2013-08-14 05:45:00,71.0,65.0,29.77,ENE,76,0.0,2.0,80,0.00,,,0.00,weatherlink.com 1.10,2013-08-14 09:45:00,
2013-08-14 06:00:00,70.9,64.0,29.78,ENE,76,0.0,3.0,79,0.00,,,0.00,weatherlink.com 1.10,2013-08-14 10:00:00,
2013-08-14 06:15:00,70.3,64.0,29.79,ENE,76,1.0,2.0,81,0.00,,,0.00,weatherlink.com 1.10,2013-08-14 10:15:00,
2013-08-14 06:30:00,70.2,65.0,29.79,NE,48,3.0,3.0,82,0.00,,,0.00,weatherlink.com 1.10,2013-08-14 10:30:00,
2013-08-14 06:45:00,70.2,64.0,29.80,SSW,192,1.0,5.0,80,0.00,,,0.00,weatherlink.com 1.10,2013-08-14 10:45:00,
2013-08-14 07:00:00,70.3,64.0,29.81,East,84,1.0,3.0,79,0.00,,,0.00,weatherlink.com 1.10,2013-08-14 11:00:00,
2013-08-14 07:15:00,70.3,64.0,29.82,East,91,0.0,2.0,80,0.00,,,0.00,weatherlink.com 1.10,2013-08-14 11:15:00,
2013-08-14 07:30:00,70.1,64.0,29.82,East,86,1.0,3.0,81,0.00,,,0.00,weatherlink.com 1.10,2013-08-14 11:30:00,
2013-08-14 07:45:00,70.0,64.0,29.83,East,84,0.0,2.0,81,0.00,,,0.00,weatherlink.com 1.10,2013-08-14 11:45:00,
2013-08-14 08:00:00,71.0,65.0,29.83,East,94,2.0,4.0,80,0.00,,,0.00,weatherlink.com 1.10,2013-08-14 12:00:00,
2013-08-14 08:15:00,72.6,65.0,29.84,SE,144,2.0,2.0,76,0.00,,,0.00,weatherlink.com 1.10,2013-08-14 12:15:00,
2013-08-14 08:30:00,73.4,65.0,29.84,ENE,59,0.0,4.0,74,0.00,,,0.00,weatherlink.com 1.10,2013-08-14 12:30:00,
2013-08-14 08:45:00,72.6,64.0,29.85,ENE,78,2.0,3.0,74,0.00,,,0.00,weatherlink.com 1.10,2013-08-14 12:45:00,
2013-08-14 09:00:00,73.1,64.0,29.85,NNE,27,0.0,3.0,72,0.00,,,0.00,weatherlink.com 1.10,2013-08-14 13:00:00,
2013-08-14 09:15:00,73.8,65.0,29.85,SSW,200,1.0,3.0,74,0.00,,,0.00,weatherlink.com 1.10,2013-08-14 13:15:00,
2013-08-14 09:30:00,73.6,65.0,29.86,NE,38,4.0,5.0,74,0.00,,,0.00,weatherlink.com 1.10,2013-08-14 13:30:00,
2013-08-14 09:45:00,73.4,65.0,29.85,NE,42,2.0,4.0,74,0.00,,,0.00,weatherlink.com 1.10,2013-08-14 13:45:00,
2013-08-14 10:00:00,73.7,65.0,29.86,NNE,29,0.0,2.0,74,0.00,,,0.00,weatherlink.com 1.10,2013-08-14 14:00:00,
2013-08-14 10:15:00,74.2,66.0,29.86,NNE,26,2.0,3.0,75,0.00,,,0.00,weatherlink.com 1.10,2013-08-14 14:15:00,
2013-08-14 10:30:00,74.0,66.0,29.86,NNE,17,1.0,4.0,76,0.00,,,0.00,weatherlink.com 1.10,2013-08-14 14:30:00,
2013-08-14 10:45:00,74.0,66.0,29.87,NNE,13,0.0,4.0,76,0.00,,,0.00,weatherlink.com 1.10,2013-08-14 14:45:00,
2013-08-14 11:00:00,74.7,67.0,29.87,NE,47,1.0,2.0,76,0.00,,,0.00,weatherlink.com 1.10,2013-08-14 15:00:00,
2013-08-14 11:15:00,75.5,66.0,29.87,NE,49,1.0,2.0,72,0.00,,,0.00,weatherlink.com 1.10,2013-08-14 15:15:00,
2013-08-14 11:30:00,75.8,68.0,29.87,ENE,62,1.0,2.0,77,0.00,,,0.00,weatherlink.com 1.10,2013-08-14 15:30:00,
2013-08-14 11:45:00,75.9,65.0,29.87,NE,44,1.0,2.0,70,0.00,,,0.00,weatherlink.com 1.10,2013-08-14 15:45:00,
2013-08-14 12:00:00,76.3,68.0,29.87,East,89,1.0,4.0,75,0.00,,,0.00,weatherlink.com 1.10,2013-08-14 16:00:00,
2013-08-14 12:16:00,75.9,67.0,29.87,ESE,121,1.0,7.0,75,0.00,,,0.00,weatherlink.com 1.10,2013-08-14 16:16:00,
2013-08-14 12:31:00,76.2,66.0,29.88,ENE,74,1.0,4.0,71,0.00,,,0.00,weatherlink.com 1.10,2013-08-14 16:31:00,
2013-08-14 12:46:00,76.5,66.0,29.88,ESE,111,0.0,4.0,71,0.00,,,0.00,weatherlink.com 1.10,2013-08-14 16:46:00,
2013-08-14 13:16:00,76.3,67.0,29.88,ESE,102,0.0,5.0,73,0.00,,,0.00,weatherlink.com 1.10,2013-08-14 17:16:00,
2013-08-14 13:31:00,76.8,67.0,29.87,East,89,0.0,4.0,72,0.00,,,0.00,weatherlink.com 1.10,2013-08-14 17:31:00,
2013-08-14 13:46:00,76.4,68.0,29.86,SSE,149,1.0,5.0,74,0.00,,,0.00,weatherlink.com 1.10,2013-08-14 17:46:00,
2013-08-14 14:01:00,76.9,67.0,29.86,SE,142,5.0,6.0,72,0.00,,,0.00,weatherlink.com 1.10,2013-08-14 18:01:00,
2013-08-14 14:16:00,77.6,67.0,29.86,East,89,1.0,5.0,69,0.00,,,0.00,weatherlink.com 1.10,2013-08-14 18:16:00,
2013-08-14 14:31:00,77.5,66.0,29.86,East,92,1.0,5.0,68,0.00,,,0.00,weatherlink.com 1.10,2013-08-14 18:31:00,
2013-08-14 14:46:00,78.3,67.0,29.86,SE,146,2.0,4.0,68,0.00,,,0.00,weatherlink.com 1.10,2013-08-14 18:46:00,
2013-08-14 15:01:00,78.9,67.0,29.86,ENE,59,3.0,7.0,66,0.00,,,0.00,weatherlink.com 1.10,2013-08-14 19:01:00,
2013-08-14 15:31:00,79.5,66.0,29.85,NE,48,5.0,8.0,63,0.00,,,0.00,weatherlink.com 1.10,2013-08-14 19:31:00,
2013-08-14 15:46:00,77.6,68.0,29.85,ESE,103,0.0,4.0,71,0.00,,,0.00,weatherlink.com 1.10,2013-08-14 19:46:00,
2013-08-14 16:01:00,76.7,67.0,29.85,East,84,1.0,5.0,72,0.00,,,0.00,weatherlink.com 1.10,2013-08-14 20:01:00,
2013-08-14 16:16:00,76.7,69.0,29.85,East,87,1.0,5.0,76,0.00,,,0.00,weatherlink.com 1.10,2013-08-14 20:16:00,
2013-08-14 16:31:00,77.6,68.0,29.85,ENE,69,2.0,5.0,72,0.00,,,0.00,weatherlink.com 1.10,2013-08-14 20:31:00,
2013-08-14 17:01:00,76.4,67.0,29.84,ESE,104,7.0,7.0,73,0.00,,,0.00,weatherlink.com 1.10,2013-08-14 21:01:00,
2013-08-14 17:16:00,76.6,68.0,29.85,ENE,67,2.0,5.0,74,0.00,,,0.00,weatherlink.com 1.10,2013-08-14 21:16:00,
2013-08-14 17:31:00,76.0,66.0,29.86,ESE,112,0.0,6.0,71,0.00,,,0.00,weatherlink.com 1.10,2013-08-14 21:31:00,
2013-08-14 17:46:00,75.1,66.0,29.86,ENE,77,0.0,4.0,74,0.00,,,0.00,weatherlink.com 1.10,2013-08-14 21:46:00,
2013-08-14 18:01:00,74.7,67.0,29.86,ENE,57,1.0,2.0,76,0.00,,,0.00,weatherlink.com 1.10,2013-08-14 22:01:00,
2013-08-14 18:16:00,74.2,66.0,29.85,NE,49,0.0,6.0,76,0.00,,,0.00,weatherlink.com 1.10,2013-08-14 22:16:00,
2013-08-14 18:31:00,73.8,67.0,29.86,North,350,1.0,3.0,79,0.00,,,0.00,weatherlink.com 1.10,2013-08-14 22:31:00,
2013-08-14 18:46:00,73.7,66.0,29.88,ESE,109,1.0,3.0,77,0.00,,,0.00,weatherlink.com 1.10,2013-08-14 22:46:00,
2013-08-14 19:01:00,73.3,66.0,29.87,ENE,63,0.0,4.0,77,0.00,,,0.00,weatherlink.com 1.10,2013-08-14 23:01:00,
2013-08-14 19:16:00,73.0,65.0,29.88,ENE,66,0.0,5.0,76,0.00,,,0.00,weatherlink.com 1.10,2013-08-14 23:16:00,
2013-08-14 19:31:00,72.8,65.0,29.88,ENE,63,0.0,3.0,77,0.00,,,0.00,weatherlink.com 1.10,2013-08-14 23:31:00,
2013-08-14 19:46:00,72.3,65.0,29.88,ENE,65,1.0,3.0,77,0.00,,,0.00,weatherlink.com 1.10,2013-08-14 23:46:00,
2013-08-14 20:01:00,71.8,64.0,29.89,North,5,0.0,3.0,76,0.00,,,0.00,weatherlink.com 1.10,2013-08-15 00:01:00,
2013-08-14 20:16:00,71.3,65.0,29.90,NNE,28,0.0,5.0,80,0.00,,,0.00,weatherlink.com 1.10,2013-08-15 00:16:00,
2013-08-14 20:31:00,70.8,65.0,29.90,NNE,28,0.0,0.0,82,0.00,,,0.00,weatherlink.com 1.10,2013-08-15 00:31:00,
2013-08-14 20:46:00,70.4,65.0,29.91,NNE,28,1.0,1.0,82,0.00,,,0.00,weatherlink.com 1.10,2013-08-15 00:46:00,
2013-08-14 21:01:00,70.3,66.0,29.92,ENE,69,0.0,2.0,85,0.00,,,0.00,weatherlink.com 1.10,2013-08-15 01:01:00,
2013-08-14 21:16:00,69.9,66.0,29.91,ENE,69,0.0,2.0,86,0.00,,,0.00,weatherlink.com 1.10,2013-08-15 01:16:00,
2013-08-14 21:31:00,69.5,66.0,29.92,ENE,68,0.0,2.0,88,0.00,,,0.00,weatherlink.com 1.10,2013-08-15 01:31:00,
2013-08-14 21:46:00,69.2,65.0,29.93,ENE,68,0.0,1.0,87,0.00,,,0.00,weatherlink.com 1.10,2013-08-15 01:46:00,
2013-08-14 22:01:00,68.8,65.0,29.93,ENE,68,0.0,1.0,87,0.00,,,0.00,weatherlink.com 1.10,2013-08-15 02:01:00,
2013-08-14 22:16:00,68.4,65.0,29.94,ENE,71,0.0,1.0,89,0.00,,,0.00,weatherlink.com 1.10,2013-08-15 02:16:00,
2013-08-14 22:31:00,67.7,64.0,29.95,NNE,25,0.0,2.0,89,0.00,,,0.00,weatherlink.com 1.10,2013-08-15 02:31:00,
2013-08-14 22:46:00,67.6,65.0,29.96,NNE,25,0.0,2.0,90,0.00,,,0.00,weatherlink.com 1.10,2013-08-15 02:46:00,
2013-08-14 23:01:00,67.5,65.0,29.96,NNE,25,1.0,2.0,90,0.00,,,0.00,weatherlink.com 1.10,2013-08-15 03:01:00,
2013-08-14 23:16:00,67.5,64.0,29.96,NNE,25,0.0,2.0,89,0.00,,,0.00,weatherlink.com 1.10,2013-08-15 03:16:00,
2013-08-14 23:31:00,67.1,65.0,29.96,NNE,25,1.0,2.0,91,0.00,,,0.00,weatherlink.com 1.10,2013-08-15 03:31:00,
2013-08-14 23:46:00,66.8,64.0,29.96,NNE,25,0.0,0.0,91,0.00,,,0.00,weatherlink.com 1.10,2013-08-15 03:46:00,